Location: Holcomb Observatory
(44.4922°N, 73.1654°W)
Time: 00:26:24
(UTC-04:00)

Daily predictions for brighter satellites

Satellite Brightness Start Highest point End
(mag) Time Altitude Azimuth Time Altitude Azimuth Time Altitude Azimuth
Cosmos 1943 Rocket 4.4 03:34:44 19° NNE 03:34:44 19° NNE 03:36:15 10° NNE
USA 267 4.3 03:29:02 10° ESE 03:33:01 38° E 03:33:01 38° E
SJ 16-02 4.1 03:58:56 15° E 03:59:03 15° E 04:01:35 10° ENE
Milstar 3 4.4 04:25:45 18° S 04:25:45 18° S 04:28:54 10° SE
Cosmos 2369 Rocket 4.1 04:30:23 19° N 04:30:23 19° N 04:32:19 10° N
Cosmos 2227 Rocket 4.0 04:23:56 10° N 04:28:52 29° NE 04:33:44 10° ESE
Cosmos 2341 Rocket 4.4 04:23:27 10° N 04:29:50 64° E 04:36:09 10° SSE
Cosmos 1125 Rocket 4.4 04:33:56 39° SE 04:35:15 47° ESE 04:40:19 10° NNE
Lacrosse 5 3.7 04:36:58 20° N 04:36:58 20° N 04:40:14 10° NE
Nadezhda 1 Rocket 4.3 04:40:55 54° NNW 04:40:55 54° NNW 04:45:59 10° N
USA 215 3.6 04:40:19 10° NE 04:46:33 49° NNW 04:47:12 47° NW
ADEOS II 2.3 04:41:24 10° NNE 04:45:47 61° N 04:45:47 61° N
Cosmos 1656 Rocket 4.0 04:49:54 52° NNW 04:49:54 52° NNW 04:54:35 10° NNE
Cosmos 158 Rocket 3.9 04:53:45 70° NNW 04:54:24 86° WSW 04:59:47 10° SSE
Okean O Rocket 2.0 04:51:35 10° NNE 04:55:59 62° ESE 04:57:00 47° SSE
DEBRIS 4.2 04:56:10 44° W 04:59:07 74° NNW 05:03:10 10° ENE
Cosmos 2219 3.0 05:00:19 67° WNW 05:00:46 71° WSW 05:06:21 10° SSE
Cosmos 1048 Rocket 3.9 05:00:09 38° NNW 05:02:13 89° WSW 05:07:28 10° SSE
Cosmos 1356 Rocket 3.7 05:04:37 61° N 05:04:37 61° N 05:08:13 10° N
Meteor 2-21 4.3 04:58:35 10° N 05:04:41 87° W 05:10:48 10° S
Meteor 1-31 Rocket 4.1 05:01:57 10° NNE 05:05:31 38° E 05:09:05 10° SSE
Cosmos 2297 Rocket 3.3 05:00:53 10° NNW 05:06:17 44° ENE 05:11:39 10° SE
NOSS 3-1 (C) 3.3 05:05:14 57° WSW 05:06:20 70° NW 05:12:54 10° NE
USA 229 DEB 4.1 05:09:24 39° WNW 05:10:26 42° NW 05:17:01 10° NNE
USA 229 4.1 05:09:29 39° WNW 05:10:31 42° NW 05:17:06 10° NNE
Cosmos 2366 rocket 4.4 05:05:36 10° N 05:11:43 63° E 05:17:49 10° SSE
NOSS 3-1 (A) 3.3 05:11:55 43° SW 05:14:03 82° NW 05:20:40 10° NE
Cosmos 1943 Rocket 3.8 05:16:16 19° NNW 05:16:16 19° NNW 05:19:07 10° N
Cosmos 2082 4.5 05:11:40 10° NNW 05:17:12 51° ENE 05:22:41 10° SE
USA 267 3.5 05:12:18 10° SSE 05:18:33 47° SW 05:20:22 38° W
Intercosmos 24 3.8 05:17:28 10° N 05:22:06 88° E 05:25:43 10° S
SL-8 Rocket 3.9 05:16:52 10° N 05:23:13 81° W 05:29:32 10° S
Meteor 2-14 Rocket 4.3 05:18:16 10° N 05:24:20 79° W 05:30:24 10° S
Cosmos 1842 Rocket 3.8 05:20:08 10° N 05:24:30 69° E 05:28:48 10° SSE
CZ-4B DEB 4.1 05:20:41 10° NNE 05:26:12 79° WNW 05:31:42 10° SSW
ATLAS 3B R/B 4.2 05:20:41 10° NNW 05:26:36 30° NE 05:32:18 10° E
RUBIN 8/PSLV 4.4 05:23:02 10° N 05:27:19 69° WNW 05:29:07 33° SSW
PAYLOAD B 4.1 05:23:17 10° N 05:28:47 72° WNW 05:34:16 10° SSW
Meteor 1-16 Rocket 4.4 05:23:27 10° NNW 05:28:58 51° W 05:34:36 10° SSW
EO 1 Del DPAF 4.4 05:26:46 10° SE 05:30:25 44° ENE 05:34:06 10° N
Meteor 2-16 Rocket 4.3 05:24:34 10° N 05:30:46 83° W 05:36:54 10° S
Meteor PRIRODA 3.5 05:27:10 10° NNE 05:30:56 88° W 05:33:49 16° SSW
Landsat 4 3.6 05:29:02 10° SSE 05:32:48 89° ENE 05:36:35 10° NNW
CZ-4B R/B 3.1 05:28:58 10° N 05:34:26 74° WNW 05:39:59 10° SSW
OE (NEXTSAT) 4.5 05:34:59 56° SW 05:35:13 58° SSW 05:38:44 10° ESE
SJ 16-02 1.4 05:36:01 40° WSW 05:37:10 53° WNW 05:41:29 10° N
Cosmos 864 Rocket 4.4 05:31:41 10° N 05:37:55 87° W 05:44:04 10° S
CZ-2C R/B 4.3 05:34:09 10° N 05:38:04 63° E 05:51:16 10° S
Meteor 2-5 Rocket 3.9 05:34:52 14° SSW 05:39:48 49° WNW 05:45:25 10° N
PSLV R/B 4.3 05:36:17 10° N 05:39:37 32° NW 05:39:37 32° NW
Meteor 1-28 Rocket 3.2 05:38:42 10° SSE 05:42:30 83° ENE 05:46:21 10° N
Meteor 2-1 Rocket 4.2 05:36:48 10° NNW 05:42:45 85° W 05:48:32 10° S
Cosmos 2369 4.2 05:37:18 10° S 05:42:50 61° ESE 05:48:25 10° NNE
Cosmos 372 Rocket 4.3 05:45:23 23° SW 05:48:17 46° WNW 05:53:21 10° N
USA 81 4.2 05:46:13 10° SSW 05:51:20 51° W 05:56:29 10° N
CZ-2C R/B 3.8 05:46:41 10° S 05:51:22 61° WSW 05:56:01 10° NNW
USA 116 3.7 05:52:12 10° S 05:55:56 60° W 06:00:11 10° NNW
Cosmos 2218 Rocket 4.1 05:49:55 10° NNW 05:55:59 55° W 06:02:07 10° SSW
MTI 3.6 05:53:45 10° S 05:56:59 69° WSW 06:00:14 10° NNW
Cosmos 1356 3.9 05:56:24 28° WSW 05:57:35 37° WNW 06:00:52 10° N
Okean 3 Rocket 4.4 05:56:53 10° S 06:01:14 55° E 06:05:35 10° NNE
SKYMED 2 3.6 05:57:55 10° SSE 06:02:15 82° ENE 06:06:37 10° N
Cosmos 2278 3.7 06:00:01 10° SSW 06:05:40 88° ESE 06:11:22 10° NNE
CZ-2C R/B 4.0 06:02:09 10° NNE 06:06:51 39° E 06:11:37 10° SSE
Cosmos 2344 4.4 06:01:30 10° SSW 06:08:52 55° ESE 06:16:59 10° NE
Cosmos 1674 2.5 06:06:26 10° SSW 06:10:09 73° W 06:13:54 10° N
Cosmos 1726 2.6 06:07:43 10° N 06:11:22 61° E 06:15:00 10° SSE
Cosmos 2227 Rocket 2.4 06:07:41 10° NW 06:13:10 49° WSW 06:18:35 10° S
Cosmos 494 Rocket 4.0 06:09:19 10° NNW 06:14:24 59° WSW 06:19:31 10° S
Nadezhda 3 Rocket 4.1 06:10:28 10° S 06:16:48 86° E 06:23:05 10° N
Cosmos 1607 4.0 06:13:26 10° NW 06:19:56 78° WSW 06:26:23 10° SSE
Lacrosse 5 3.6 06:16:52 10° NW 06:20:54 23° NNE 06:24:56 10° ENE
Thor Agena Rocket 4.2 06:15:55 10° SSE 06:21:04 60° ENE 06:26:12 10° N
ADEOS II 3.8 06:23:25 10° NNW 06:25:33 13° NW 06:26:43 12° WNW
NOSS 2-3 (D) 3.9 06:21:36 10° SW 06:26:18 82° NW 06:31:52 10° NE
Meteor 1-24 Rocket 4.5 06:23:00 10° SW 06:28:18 32° WNW 06:33:32 10° N
USA 215 4.4 06:23:09 10° NE 06:28:40 30° N 06:34:11 10° WNW
Cosmos 2098 Rocket 4.5 06:22:36 10° N 06:30:11 88° W 06:37:29 10° S
NOAA 6 4.1 06:25:50 10° N 06:30:57 62° WNW 06:36:00 10° SSW
IDEFIX/ARIANE 42P 2.7 06:25:51 10° NNE 06:31:08 83° ESE 06:36:20 10° SSW
Okean O Rocket 3.2 06:29:20 10° NNW 06:31:52 15° WNW 06:34:23 10° W
SL-14 R/B 3.5 06:34:44 10° S 06:38:37 73° E 06:42:29 10° NNE
Meteor 1-31 Rocket 4.3 06:37:11 10° NNW 06:39:42 17° WNW 06:42:13 10° WSW
Cosmos 1656 3.8 06:35:01 10° SW 06:40:38 59° WNW 06:46:17 10° NNE
Meteor 2-10 4.2 06:36:40 10° NNW 06:42:13 82° W 06:47:53 10° S
ATLAS CENTAUR R/B 2.0 06:39:54 10° NNW 06:43:37 52° NE 06:47:30 10° SE
Cosmos 2221 3.1 06:40:20 10° NNW 06:44:22 36° W 06:48:22 10° SSW
Cosmos 2084 Rocket 4.0 06:42:19 10° WSW 06:46:14 35° NW 06:49:59 10° NNE
Cosmos 1408 Rocket 3.7 06:43:04 10° S 06:47:22 81° E 06:51:46 10° N
Cosmos 2297 Rocket 3.0 06:45:17 10° NW 06:50:07 30° WSW 06:54:56 10° SSW
COSMO-SKYMED 1 3.4 06:46:35 10° SSW 06:50:26 31° W 06:54:19 10° NNW
ATLAS 2AS CENTAUR R/B 3.2 06:45:11 10° SW 06:52:59 89° SE 07:01:12 10° NE
